Location: Avon Lake
(41.5219°N, 93.5010°W)
Time: 07:12:49
(UTC+00:00)

BlueWalker 3 - Pass Details

Date: 03 December 2022
Orbit: 499 x 517 km, 53.2° (Epoch: 07 February)

Event Time Altitude Azimuth Distance (km) Brightness Sun altitude
Rises 23:35:26 0° 299° (WNW) 2,631 6.2 -9.5°
Reaches altitude 10° 23:38:29 10° 324° (NW) 1,739 4.9 -10.0°
Maximum altitude 23:40:45 15° 359° (N) 1,461 4.1 -10.4°
Enters shadow 23:42:56 10° 34° (NE) 1,712 4.2 -10.8°
